World > North America > United States > Nevada   City of Las Vegas, NV
Hourly Weather in Las Vegas, NevadaLas Vegas, Nevada Hourly Weather

Las Vegas, NV Hourly Weather

Hourly Weather Las Vegas, NevadaHourly Weather in Las Vegas, NV
Lat: 36.17N, Lon: 115.14W  ICAO: KVGT
Web Search

If you are on your PC, you can easily pass this page to your phone by scanning the QR Code near the bottom with your camera.

Feedback

Las Vegas Hourly Weather

36 Hour Weather Scroll   °F Click to change Las Vegas hourly weather to Imperial units.Click to change Las Vegas hourly weather to Metric units. °C
Currently, Clear, temperature is 66°F19°C, dew point 32°F0°C, humidity 28%. Wind direction is SE at 7 mph11 km/h with visibility of 10.00 mi16 km. Barometric pressure is 30.3 in1026 mb.

Oct 27
11:00 AM

Oct 27
NOON

Oct 27
1:00 PM

Oct 27
2:00 PM

Oct 27
3:00 PM

Oct 27
4:00 PM

Oct 27
5:00 PM

Oct 27
6:00 PM

Oct 27
7:00 PM

Oct 27
8:00 PM

Oct 27
9:00 PM

Oct 27
10:00 PM

Oct 27
11:00 PM

Oct 28
MIDNIGHT

Oct 28
1:00 AM

Oct 28
2:00 AM

Oct 28
3:00 AM

Oct 28
4:00 AM

Oct 28
5:00 AM

Oct 28
6:00 AM

Oct 28
7:00 AM

Oct 28
8:00 AM

Oct 28
9:00 AM

Oct 28
10:00 AM

Oct 28
11:00 AM

Oct 28
NOON

Oct 28
1:00 PM

Oct 28
2:00 PM

Oct 28
3:00 PM

Oct 28
4:00 PM

Oct 28
5:00 PM

Oct 28
6:00 PM

Oct 28
7:00 PM

Oct 28
8:00 PM

Oct 28
9:00 PM

Oct 28
10:00 PM
Clear Clear Clear Clear Clear Clear Clear Clear Clear Clear Clear Clear Clear Clear Clear Clear Clear Clear Clear Clear Clear Clear Clear Clear Clear Clear Clear Clear Clear Clear Clear Clear Clear Clear Clear Clear
Clear Clear Clear Clear Clear Clear Clear Clear Clear Clear Clear Clear Clear Clear Clear Clear Clear Clear Clear Clear Clear Clear Clear Clear Clear Clear Clear Clear Clear Clear Clear Clear Clear Clear Clear Clear
67°F19°C 69°F21°C 72°F22°C 74°F23°C 74°F23°C 75°F24°C 75°F24°C 73°F23°C 70°F21°C 68°F20°C 66°F19°C 65°F18°C 63°F17°C 62°F17°C 62°F17°C 61°F16°C 60°F16°C 60°F16°C 59°F15°C 59°F15°C 59°F15°C 59°F15°C 63°F17°C 68°F20°C 72°F22°C 74°F23°C 76°F24°C 78°F26°C 79°F26°C 79°F26°C 80°F27°C 77°F25°C 74°F23°C 71°F22°C 69°F21°C 67°F19°C
- - - - - - - - - - - - - - - - - - - - - - - - - - - - - - - - - - - -
0% 0% 0% 0% 0% 0% 0% 0% 0% 0% 0% 0% 0% 0% 0% 0% 0% 0% 0% 0% 0% 0% 0% 0% 0% 0% 0% 0% 0% 0% 0% 0% 0% 0% 0% 0%
33°F1°C 33°F1°C 34°F1°C 34°F1°C 34°F1°C 34°F1°C 34°F1°C 35°F2°C 36°F2°C 37°F3°C 36°F2°C 36°F2°C 35°F2°C 35°F2°C 35°F2°C 35°F2°C 35°F2°C 34°F1°C 34°F1°C 35°F2°C 35°F2°C 36°F2°C 37°F3°C 37°F3°C 38°F3°C 37°F3°C 37°F3°C 36°F2°C 36°F2°C 35°F2°C 35°F2°C 37°F3°C 38°F3°C 40°F4°C 40°F4°C 39°F4°C
28% 26% 25% 23% 23% 22% 22% 25% 29% 32% 33% 34% 35% 36% 36% 38% 39% 38% 39% 40% 40% 42% 38% 32% 29% 26% 24% 22% 21% 20% 20% 24% 27% 32% 35% 36%
NE NE NE NE NE NE NE NE NNE N SE SW NNW NNW N N N N N N N N N N N SSW SE N NE NE ENE SSE SSW N NNW NNW
5 mph 5 mph 6 mph 6 mph 6 mph 5 mph 5 mph 5 mph 3 mph 3 mph 3 mph 5 mph 5 mph 5 mph 7 mph 7 mph 7 mph 8 mph 8 mph 8 mph 9 mph 9 mph 9 mph 9 mph 9 mph 9 mph 7 mph 7 mph 7 mph 6 mph 6 mph 6 mph 5 mph 5 mph 5 mph 5 mph
10 mi16 km 10 mi16 km 10 mi16 km 10 mi16 km 10 mi16 km 10 mi16 km 10 mi16 km 10 mi16 km 10 mi16 km 10 mi16 km 10 mi16 km 10 mi16 km 10 mi16 km 10 mi16 km 10 mi16 km 10 mi16 km 10 mi16 km 10 mi16 km 10 mi16 km 10 mi16 km 10 mi16 km 10 mi16 km 10 mi16 km 10 mi16 km 10 mi16 km 10 mi16 km 10 mi16 km 10 mi16 km 10 mi16 km 10 mi16 km 10 mi16 km 10 mi16 km 10 mi16 km 10 mi16 km 10 mi16 km 10 mi16 km
Hour (PDT)
Weather
Clouds
Temperature
Precip. Type
POP
Dewpoint
Humidity
Wind Direction
Wind Speed
Visibility
POP = Probability of Precipitation. ** Indicates missing data/values from model statistics.

24 Hour Forecast

Today - Sunny. Highs 72 to 75 on the west side of the valley... 73 to 76 on the east side. Northwest winds 5 to 10 mph shifting to the northeast in the afternoon.
Tonight - Clear. Lows 53 to 57 on the west side of the valley... 55 to 58 on the east side. Northwest winds 5 to 10 mph.

48 Hour Forecast API Feed


Wed, Oct 27
11:00 am

Wed, Oct 27
Noon

Wed, Oct 27
1:00 pm

Wed, Oct 27
2:00 pm

Wed, Oct 27
3:00 pm

Wed, Oct 27
4:00 pm

Wed, Oct 27
5:00 pm

Wed, Oct 27
6:00 pm

Wed, Oct 27
7:00 pm

Wed, Oct 27
8:00 pm

Wed, Oct 27
9:00 pm

Wed, Oct 27
10:00 pm

Wed, Oct 27
11:00 pm

Thu, Oct 28
Midnight

Thu, Oct 28
1:00 am

Thu, Oct 28
2:00 am

Thu, Oct 28
3:00 am

Thu, Oct 28
4:00 am

Thu, Oct 28
5:00 am

Thu, Oct 28
6:00 am

Thu, Oct 28
7:00 am

Thu, Oct 28
8:00 am

Thu, Oct 28
9:00 am

Thu, Oct 28
10:00 am

Thu, Oct 28
11:00 am

Thu, Oct 28
Noon

Thu, Oct 28
1:00 pm

Thu, Oct 28
2:00 pm

Thu, Oct 28
3:00 pm

Thu, Oct 28
4:00 pm

Thu, Oct 28
5:00 pm

Thu, Oct 28
6:00 pm

Thu, Oct 28
7:00 pm

Thu, Oct 28
8:00 pm

Thu, Oct 28
9:00 pm

Thu, Oct 28
10:00 pm

Thu, Oct 28
11:00 pm

Fri, Oct 29
Midnight

Fri, Oct 29
1:00 am

Fri, Oct 29
2:00 am

Fri, Oct 29
3:00 am

Fri, Oct 29
4:00 am

Fri, Oct 29
5:00 am

Fri, Oct 29
6:00 am

Fri, Oct 29
7:00 am

Fri, Oct 29
8:00 am

Fri, Oct 29
9:00 am

Fri, Oct 29
10:00 am
SunnySunnySunnySunnySunnySunnySunnyClearClearClearClearClearClearClearClearClearClearClearClearClearClearSunnySunnySunnySunnySunnySunnySunnySunnySunnySunnyClearClearClearClearClearClearClearClearClearClearClearClearClearClearSunnySunnySunny
Sunny Sunny Sunny Sunny Sunny Sunny Sunny Clear Clear Clear Clear Clear Clear Clear Clear Clear Clear Clear Clear Clear Clear Sunny Sunny Sunny Sunny Sunny Sunny Sunny Sunny Sunny Sunny Clear Clear Clear Clear Clear Clear Clear Clear Clear Clear Clear Clear Clear Clear Sunny Sunny Sunny
65°F
18°C
67°F
20°C
69°F
21°C
71°F
22°C
72°F
22°C
72°F
22°C
72°F
22°C
71°F
22°C
70°F
21°C
65°F
18°C
64°F
18°C
64°F
18°C
64°F
18°C
63°F
17°C
59°F
15°C
59°F
15°C
58°F
15°C
58°F
14°C
58°F
14°C
58°F
14°C
57°F
14°C
60°F
15°C
65°F
18°C
68°F
20°C
71°F
22°C
73°F
23°C
79°F
26°C
80°F
27°C
81°F
27°C
81°F
27°C
78°F
26°C
78°F
25°C
75°F
24°C
70°F
21°C
69°F
21°C
68°F
20°C
67°F
20°C
65°F
19°C
63°F
17°C
61°F
16°C
60°F
16°C
60°F
16°C
60°F
16°C
60°F
15°C
59°F
15°C
62°F
17°C
67°F
20°C
69°F
21°C
28°F
-2°C
29°F
-2°C
29°F
-2°C
30°F
-1°C
31°F
-1°C
32°F
-0°C
33°F
1°C
37°F
3°C
38°F
3°C
34°F
1°C
35°F
2°C
36°F
2°C
37°F
3°C
36°F
2°C
33°F
1°C
33°F
1°C
34°F
1°C
34°F
1°C
34°F
1°C
34°F
1°C
34°F
1°C
34°F
1°C
34°F
1°C
33°F
1°C
33°F
1°C
33°F
1°C
37°F
3°C
38°F
3°C
38°F
3°C
38°F
3°C
38°F
3°C
42°F
6°C
42°F
6°C
38°F
3°C
38°F
3°C
38°F
3°C
38°F
3°C
37°F
3°C
36°F
2°C
35°F
2°C
36°F
2°C
37°F
3°C
37°F
3°C
37°F
3°C
37°F
3°C
38°F
3°C
37°F
3°C
37°F
3°C
30.18 in
1022 mb
30.15 in
1021 mb
30.12 in
1020 mb
30.09 in
1019 mb
30.09 in
1019 mb
30.09 in
1019 mb
30.09 in
1019 mb
30.09 in
1019 mb
30.12 in
1020 mb
30.12 in
1020 mb
30.12 in
1020 mb
30.12 in
1020 mb
30.12 in
1020 mb
30.12 in
1020 mb
30.12 in
1020 mb
30.12 in
1020 mb
30.12 in
1020 mb
30.12 in
1020 mb
30.12 in
1020 mb
30.12 in
1020 mb
30.12 in
1020 mb
30.15 in
1021 mb
30.15 in
1021 mb
30.15 in
1021 mb
30.12 in
1020 mb
30.09 in
1019 mb
30.06 in
1018 mb
30.03 in
1017 mb
30 in
1016 mb
30 in
1016 mb
29.97 in
1015 mb
29.97 in
1015 mb
30 in
1016 mb
30 in
1016 mb
30 in
1016 mb
30 in
1016 mb
30 in
1016 mb
29.97 in
1015 mb
29.97 in
1015 mb
29.97 in
1015 mb
29.94 in
1014 mb
29.94 in
1014 mb
29.94 in
1014 mb
29.94 in
1014 mb
29.94 in
1014 mb
29.97 in
1015 mb
29.97 in
1015 mb
29.97 in
1015 mb
25%24%22%22%22%23%24%28%30%31%34%36%36%36%37%38%39%40%41%41%41%38%32%28%25%23%22%22%21%22%23%28%30%31%32%33%34%35%37%38%40%41%42%43%44%40%33%31%
ENEEEESEESEESEESESSESWWNWNWWNWNNWNNNNNWNNWNNWNNWNNWNNWNNNENENENENENENNENNENNNWNNWNNWNNWNNWNNNENEENEEESEESEWSWESEE
2 mph
3 km/h
3 mph
5 km/h
4 mph
7 km/h
4 mph
7 km/h
4 mph
7 km/h
4 mph
6 km/h
4 mph
7 km/h
4 mph
6 km/h
3 mph
5 km/h
4 mph
6 km/h
3 mph
5 km/h
2 mph
4 km/h
3 mph
4 km/h
4 mph
7 km/h
4 mph
7 km/h
5 mph
8 km/h
5 mph
8 km/h
6 mph
9 km/h
6 mph
10 km/h
7 mph
12 km/h
7 mph
12 km/h
6 mph
10 km/h
5 mph
9 km/h
6 mph
9 km/h
6 mph
10 km/h
7 mph
11 km/h
7 mph
12 km/h
7 mph
12 km/h
8 mph
12 km/h
7 mph
12 km/h
5 mph
8 km/h
3 mph
4 km/h
4 mph
6 km/h
4 mph
7 km/h
4 mph
7 km/h
4 mph
6 km/h
3 mph
5 km/h
2 mph
4 km/h
2 mph
4 km/h
2 mph
3 km/h
1 mph
2 km/h
1 mph
1 km/h
1 mph
1 km/h
0 mph
1 km/h
0 mph
0 km/h
0 mph
0 km/h
1 mph
2 km/h
2 mph
3 km/h
0%0%0%0%0%0%0%0%0%0%0%0%0%0%0%0%0%0%0%0%0%0%0%0%0%0%0%0%0%0%0%0%0%0%0%0%0%0%0%0%0%0%0%0%0%0%0%0%
6 mi
10 km
6 mi
10 km
6 mi
10 km
6 mi
10 km
6 mi
10 km
6 mi
10 km
6 mi
10 km
6 mi
10 km
6 mi
10 km
6 mi
10 km
6 mi
10 km
6 mi
10 km
6 mi
10 km
6 mi
10 km
6 mi
10 km
6 mi
10 km
6 mi
10 km
6 mi
10 km
6 mi
10 km
6 mi
10 km
6 mi
10 km
6 mi
10 km
6 mi
10 km
6 mi
10 km
6 mi
10 km
6 mi
10 km
6 mi
10 km
6 mi
10 km
6 mi
10 km
6 mi
10 km
6 mi
10 km
6 mi
10 km
6 mi
10 km
6 mi
10 km
6 mi
10 km
6 mi
10 km
6 mi
10 km
6 mi
10 km
6 mi
10 km
6 mi
10 km
6 mi
10 km
6 mi
10 km
6 mi
10 km
6 mi
10 km
6 mi
10 km
6 mi
10 km
6 mi
10 km
6 mi
10 km

Day/Time
Weather
Condition
Temperature
Dew Point
Pressure
Humidity
Wind Direction
Wind Speed
Prob Precip %
Visibility
Prob Precip % = Probability of Precipitation.